Location: Unspecified
(16.7124°N, 0.0000°E)
Time: 22:19:15
(UTC+00:00)

Explorer 7 - Visible Passes

Search period start: 04 April 2026 00:00
Search period end: 14 April 2026 00:00
Orbit: 429 x 539 km, 50.2° (Epoch: 29 March)

Date Brightness Start Highest point End Pass type
(mag) Time Alt. Az. Time Alt. Az. Time Alt. Az.
4 Apr 6.7 05:00:56 10° NNW 05:04:24 64° NE 05:07:47 10° SE visible
4 Apr 7.0 18:32:14 10° SSW 18:36:12 50° SE 18:40:08 10° NE visible
4 Apr 9.8 20:13:04 10° WNW 20:14:39 12° NW 20:16:14 10° NNW visible
5 Apr 6.9 04:35:01 18° NNW 04:37:22 56° NE 04:40:44 10° SE visible
5 Apr 9.7 19:45:35 10° WNW 19:47:33 13° NW 19:49:30 10° NNW visible
6 Apr 7.5 04:10:56 43° E 04:10:56 43° E 04:13:39 10° SE visible
6 Apr 9.7 19:18:10 10° WNW 19:20:25 14° NW 19:22:40 10° N visible
7 Apr 9.6 18:50:45 10° W 18:53:16 16° NW 18:55:46 10° N visible
